EHI
31 33 33 34 32 27 24 22 21 25 32 38 36 29 20 14 14 14 7 3 4 4 2 2 2 2 2 1 0 0 0 0 0 0 0 1 1 1 0 0 0 0 0
36 39 41 40 40 38 37 36 35 38 41 45 42 34 23 17 17 18 14 8 8 8 7 8 8 8 7 5 2 1 0 0 0 0 0 0 0 0 0 0 0 0 0
45 48 51 50 51 53 55 57 58 58 56 53 49 42 33 24 22 25 24 20 17 16 17 19 19 18 17 15 11 7 3 1 0 0 0 0 0 0 0 0 0 0 0
56 58 60 63 65 66 68 70 71 71 67 60 56 52 46 35 29 31 33 31 29 28 28 29 28 26 26 24 20 15 9 2 0 0 0 0 0 0 1 0 0 0 0
61 62 64 68 69 69 70 71 73 73 70 65 62 59 52 39 26 27 32 35 39 40 37 35 30 25 22 20 17 15 10 5 2 1 0 0 0 0 1 0 0 0 0
55 56 56 57 58 58 60 63 66 68 68 66 63 60 52 35 18 13 20 30 42 48 47 42 31 18 10 7 6 6 5 4 4 2 1 0 0 0 1 0 0 0 0
43 43 41 40 41 43 47 51 55 59 60 58 57 57 51 34 12 3 7 20 35 46 51 48 36 18 7 4 3 2 1 2 2 2 1 0 0 0 1 0 0 0 0
28 28 27 25 26 30 34 39 44 46 46 45 45 47 46 32 11 0 2 7 19 30 37 38 34 22 10 5 5 3 3 2 1 1 1 0 0 0 1 0 0 0 0
14 14 14 14 15 18 23 28 31 31 31 31 31 34 34 25 9 0 0 2 7 13 17 18 19 15 7 3 3 4 6 5 2 0 0 0 0 0 0 0 0 0 0
5 5 6 8 8 10 14 17 18 18 18 19 20 22 23 17 7 1 0 1 3 4 6 5 4 3 2 0 0 2 5 5 2 0 0 0 0 0 0 0 0 0 0
1 1 3 4 5 6 8 10 11 11 11 10 11 12 13 10 5 1 0 0 1 1 1 1 0 0 0 0 0 0 1 1 0 0 0 0 0 0 0 0 0 0 0
0 0 1 1 2 3 5 6 7 8 7 6 6 7 7 5 2 0 0 0 0 0 0 0 0 0 0 0 0 0 0 0 0 0 0 0 0 0 0 0 0 0 0
0 0 0 0 0 0 1 2 3 4 3 3 3 3 4 3 1 0 0 0 0 0 0 0 0 0 0 0 0 0 0 0 0 0 0 0 0 0 0 0 0 0 0
0 0 0 0 0 0 0 0 1 1 1 1 1 1 1 1 0 0 0 0 0 0 0 0 0 0 0 0 0 0 0 0 0 0 0 0 0 0 0 0 0 0 0
0 0 0 0 0 0 0 0 0 0 0 0 0 0 0 0 0 0 0 0 0 0 0 0 0 0 0 0 0 0 0 0 0 0 0 0 0 0 0 0 0 0 0
0 0 0 0 0 0 0 0 0 0 0 0 0 0 0 0 0 0 0 0 0 0 0 0 0 0 0 0 0 0 0 0 0 0 0 0 0 0 0 0 0 0 0
0 0 0 0 0 0 0 0 0 0 0 0 0 0 0 0 0 0 0 0 0 0 0 0 0 0 0 0 0 0 0 0 0 0 0 0 0 0 0 0 0 0 0
0 0 0 0 0 0 0 0 0 0 0 0 0 0 0 0 0 0 0 0 0 0 0 0 0 0 0 0 0 0 0 0 0 0 0 0 0 0 0 0 0 0 0
0 0 0 0 0 0 0 0 0 0 0 0 0 0 0 0 0 0 0 0 0 0 0 0 0 0 0 0 0 0 0 0 0 0 0 0 0 0 0 0 0 0 0
0 0 0 0 0 0 0 0 0 0 0 0 0 0 0 0 0 0 0 0 0 0 0 0 0 0 0 0 0 0 0 0 0 0 0 0 0 0 0 0 0 0 0
0 0 0 0 0 0 0 0 0 0 0 0 0 0 0 0 0 0 0 0 0 0 0 0 0 0 0 0 0 0 0 0 0 0 0 0 0 0 0 0 0 0 0
0 0 0 0 0 0 0 0 0 0 0 0 0 0 0 0 0 0 0 0 0 0 0 0 0 0 0 0 0 0 0 0 0 0 0 0 0 0 0 0 0 0 0
0 0 0 0 0 0 0 0 0 0 0 0 0 0 0 0 0 0 0 0 0 0 0 0 0 0 0 0 0 0 0 0 0 0 0 0 0 0 0 0 0 0 0
0 0 0 0 0 0 0 0 0 0 0 0 0 0 0 0 0 0 0 0 0 0 0 0 0 0 0 0 0 0 0 0 0 0 0 0 0 0 0 0 0 0 0
0 0 0 0 0 0 0 0 0 0 0 0 0 0 0 0 0 0 0 0 0 0 0 0 0 0 0 0 0 0 0 0 0 0 0 0 0 0 0 0 0 0 0
0 0 0 0 0 0 0 0 0 0 0 0 0 0 0 0 0 0 0 0 0 0 0 0 0 0 0 0 0 0 0 0 0 0 0 0 0 0 0 0 0 0 0
Wind_Speed
10 10 8 9 9 8 7 6 5 5 5 6 7 7 7 7 7 6 6 6 6 6 6 5 5 5 3 3 2 3 3 3 4 4 3 2 2 3 3 3 4 4 6
10 9 9 8 8 8 8 8 7 6 7 7 7 7 8 8 8 8 9 8 7 7 7 7 6 6 7 5 4 4 4 3 4 5 4 3 4 4 5 5 6 7 6
11 10 9 9 8 8 7 7 8 7 7 7 8 8 8 8 8 9 9 9 8 8 8 8 7 7 7 6 6 6 5 5 4 5 5 5 4 5 5 6 7 5 8
9 9 8 8 7 7 7 7 7 7 8 8 8 8 8 8 8 8 9 9 9 8 8 8 8 8 8 8 7 7 6 6 5 5 5 5 5 6 4 5 5 5 6
4 4 4 5 5 5 5 5 5 5 7 6 6 6 6 7 7 7 7 9 8 8 8 8 9 10 11 9 9 7 8 7 6 6 6 6 6 5 5 5 6 5 5
5 4 3 2 1 0 2 2 3 4 4 4 5 5 6 7 7 8 7 6 6 8 8 8 9 10 13 15 15 14 11 9 8 7 7 7 7 6 5 5 4 4 5
8 8 7 6 5 4 3 3 1 2 2 3 3 4 4 4 4 4 6 5 5 6 6 6 8 11 10 9 12 16 16 17 15 10 11 10 9 6 5 6 6 6 6
10 9 9 8 8 6 6 5 5 4 3 3 3 3 3 2 1 2 4 5 6 6 6 7 7 8 10 8 9 10 11 12 14 14 13 14 12 9 8 7 7 7 7
10 9 8 8 7 7 7 6 5 5 4 4 3 4 3 2 1 1 2 3 4 6 6 7 8 8 9 10 9 10 10 10 13 17 17 17 19 18 13 7 7 8 9
9 8 7 6 6 6 6 5 4 4 4 4 4 3 3 2 0 1 2 2 4 4 5 6 8 7 7 7 7 8 11 10 10 12 11 13 15 15 17 13 11 11 10
7 7 6 5 4 4 4 3 4 3 3 4 4 4 3 1 1 2 2 1 4 5 6 6 5 7 9 10 9 9 12 11 10 10 10 9 9 10 11 12 13 13 13
6 5 5 5 5 5 4 3 3 4 4 4 3 3 3 2 3 2 1 2 4 5 6 7 7 11 14 15 12 14 16 14 10 10 11 10 10 10 10 11 13 15 15
4 3 3 3 2 2 3 4 4 3 3 4 4 4 4 3 3 3 3 4 6 5 7 10 12 15 15 14 16 18 15 10 10 11 12 11 10 10 9 9 10 13 15
4 4 3 3 2 2 2 3 3 3 3 3 4 5 5 4 4 4 4 5 7 7 8 11 14 16 16 16 16 13 11 10 11 11 11 10 9 9 9 9 9 9 10
5 5 6 5 3 3 3 3 3 2 2 2 3 4 5 5 4 4 5 7 7 8 10 10 10 10 10 9 9 8 8 8 9 9 10 10 10 10 9 8 8 8 10
6 6 6 6 5 4 4 4 4 4 3 5 5 5 5 5 6 8 9 11 12 13 10 10 11 10 10 10 10 10 9 9 9 9 9 9 9 10 10 9 9 10 10
5 6 6 6 6 6 6 6 5 4 3 4 5 6 6 8 9 11 12 13 14 12 9 10 10 9 9 9 10 11 11 10 9 9 10 9 9 9 9 9 9 10 10
7 7 5 4 6 6 6 6 6 7 7 5 4 5 6 8 10 12 12 11 10 8 8 9 9 9 9 9 10 10 10 10 10 10 10 10 10 9 9 10 10 11 10
7 6 5 5 7 6 6 7 7 8 8 7 7 6 5 8 11 11 10 7 9 9 9 9 9 9 10 10 10 10 11 11 11 11 10 10 9 9 9 10 10 12 11
5 4 5 6 7 6 7 7 7 7 8 8 8 8 9 10 10 9 8 8 8 9 9 9 9 10 10 10 10 10 10 11 11 10 10 9 8 8 10 11 9 9 8
8 7 7 6 6 7 7 8 8 7 8 8 8 8 10 10 10 9 9 9 9 9 9 10 10 10 10 9 9 11 13 11 10 10 9 9 9 8 8 8 9 9 8
7 7 6 7 7 6 7 7 7 7 8 9 9 9 11 9 8 9 9 9 9 9 9 9 9 9 9 10 10 10 11 10 10 10 10 10 9 9 8 8 8 8 8
6 7 7 7 7 7 7 7 7 8 8 8 9 9 9 8 9 9 10 10 9 9 9 10 10 10 9 9 9 9 10 9 9 11 11 10 10 9 8 9 10 10 8
6 7 8 7 7 7 7 7 7 8 8 8 8 8 8 9 9 10 10 10 10 10 10 9 10 13 16 12 9 8 8 9 11 10 13 12 11 10 9 9 10 9 8
6 7 7 6 7 7 7 7 7 8 8 8 8 8 8 9 9 10 10 9 11 11 13 12 9 11 15 17 15 12 12 12 11 11 11 10 11 11 10 11 9 8 7
7 6 6 6 6 6 6 7 7 8 8 8 8 8 8 9 9 9 10 10 11 11 11 10 13 15 17 14 15 16 13 12 12 12 10 9 10 9 10 8 11 9 8
Wind_Direction
194 196 204 193 202 208 215 223 220 212 193 178 184 190 195 198 195 200 224 227 210 216 226 228 223 239 270 290 267 238 234 236 254 272 276 284 204 213 209 227 253 239 233
196 195 201 202 202 205 209 213 214 209 204 196 194 200 205 205 200 201 213 229 221 217 223 230 228 224 219 236 257 266 257 243 240 261 271 277 261 228 217 219 243 257 254
195 197 197 200 205 209 213 211 210 209 210 209 202 206 211 212 205 206 210 221 227 222 220 223 225 228 228 224 225 237 245 249 229 235 245 240 243 241 232 229 239 245 258
190 191 194 199 205 209 212 213 211 209 211 217 215 214 213 217 217 214 215 218 224 227 225 224 224 223 226 226 232 232 238 250 255 253 251 245 239 232 219 222 239 234 242
140 157 174 188 199 209 215 218 216 217 221 219 220 219 218 217 221 219 221 224 224 230 232 232 235 233 232 231 236 231 229 232 238 243 246 245 240 231 223 218 233 236 236
78 70 63 72 82 237 249 242 230 228 234 227 225 227 228 232 227 218 219 236 232 232 236 237 242 241 239 235 237 238 236 236 239 241 246 245 243 237 232 232 235 241 251
57 49 41 41 38 36 15 358 330 280 257 250 251 246 243 242 251 232 226 239 253 254 252 251 256 257 252 242 238 238 242 242 239 243 252 254 255 252 248 246 240 240 244
57 49 42 38 33 32 34 19 9 358 345 320 287 271 270 275 240 216 236 246 261 267 269 267 264 267 272 273 268 256 245 244 240 239 244 250 253 253 252 252 251 256 252
56 50 45 42 38 32 30 21 17 8 353 330 336 330 321 317 347 183 223 276 273 278 279 281 279 273 274 278 276 271 266 257 251 245 236 238 241 244 244 250 248 248 253
49 46 42 37 40 39 27 14 6 356 345 340 340 335 330 327 13 168 196 283 292 295 293 288 287 302 321 321 297 286 277 272 273 272 257 249 246 245 237 234 239 245 249
47 41 34 23 22 44 28 1 346 343 330 313 305 304 307 324 76 144 178 298 317 314 309 306 308 334 334 322 305 284 276 281 281 273 268 259 247 241 236 230 228 232 240
45 38 25 14 6 16 1 341 323 314 311 311 323 330 339 19 51 96 147 276 321 316 306 304 311 328 322 309 296 279 275 276 273 268 263 259 254 248 241 235 230 228 231
37 21 360 339 324 337 334 324 320 329 339 353 358 351 345 358 22 46 29 336 314 302 301 308 314 310 304 294 278 273 272 268 264 262 260 258 255 253 251 247 241 236 234
12 349 316 295 300 331 318 312 329 339 345 348 340 331 329 331 356 9 351 328 318 309 311 313 307 291 281 272 273 271 259 253 251 256 259 261 260 257 252 248 246 242 242
346 334 320 318 327 308 289 291 295 291 279 276 303 310 314 318 342 341 325 318 317 310 312 303 295 293 291 288 285 281 276 271 263 259 261 262 262 261 259 256 252 247 244
342 338 331 330 336 330 322 319 301 282 248 236 252 277 306 323 330 324 313 302 296 296 301 294 293 294 295 298 300 298 294 289 285 281 275 271 268 266 265 262 257 252 249
326 315 317 324 329 329 326 323 321 314 267 249 260 276 285 308 317 311 304 303 295 289 285 288 293 298 300 303 302 300 298 297 294 288 284 281 278 274 271 268 263 258 254
319 314 318 329 331 322 320 326 330 335 336 337 315 304 298 304 305 300 302 310 305 301 300 302 303 305 306 306 305 304 303 301 297 291 284 280 279 274 270 268 265 260 257
318 319 337 334 317 317 334 339 338 340 338 336 336 338 342 322 307 303 309 310 313 314 314 313 313 313 312 309 307 304 303 300 298 297 292 284 278 279 276 272 269 265 259
315 323 328 322 319 336 346 342 339 339 337 337 336 340 345 335 326 326 327 322 316 316 317 316 315 314 313 310 306 304 302 302 301 297 294 291 286 280 277 276 272 269 264
329 330 331 331 347 357 351 343 341 342 340 337 335 344 346 330 325 328 328 326 325 321 320 319 316 313 310 309 309 308 308 304 305 306 305 300 295 290 284 278 276 270 267
319 331 346 351 356 6 351 342 347 346 341 340 338 337 337 333 331 330 328 326 323 321 320 317 312 309 309 309 309 309 308 309 313 314 311 306 302 297 292 288 285 279 271
330 347 356 3 0 359 353 356 352 346 343 341 337 336 336 335 331 329 326 323 322 321 319 315 312 310 310 311 309 308 310 315 318 315 311 305 303 298 294 291 287 282 273
357 10 8 2 0 358 353 350 348 345 342 340 338 336 335 334 330 328 327 325 323 320 317 315 313 315 318 320 316 312 315 319 318 311 307 301 298 295 295 293 290 283 277
22 21 9 5 1 355 349 348 348 346 343 343 340 338 336 333 330 329 327 325 324 322 322 322 318 319 320 320 321 323 324 317 308 308 304 296 293 293 293 296 297 297 293
27 19 8 3 359 355 352 350 348 346 344 343 340 338 335 332 332 332 330 329 328 325 323 321 319 322 323 323 325 325 317 311 308 304 299 293 291 291 296 297 299 298 296